Vorticity
nan nan nan nan nan nan nan nan nan nan nan nan nan nan nan nan nan nan nan nan nan nan nan nan nan nan nan nan nan nan nan nan nan nan nan nan nan nan nan nan nan nan nan nan nan nan nan nan nan nan nan nan nan nan
nan 15 14 14 10 11 14 13 14 16 14 14 10 9 14 19 20 -2 -1 12 10 11 10 9 9 7 13 12 9 13 7 13 13 9 8 9 9 13 13 13 14 16 13 9 11 10 12 11 5 5 13 11 13 nan
nan 13 14 15 17 13 7 15 20 15 12 9 11 18 17 17 17 -12 -4 9 10 8 12 12 12 11 10 10 9 6 10 12 10 11 11 10 9 10 11 8 2 10 17 10 8 10 6 5 7 16 12 14 19 nan
nan 13 12 13 14 12 10 16 14 12 10 8 17 17 28 32 6 -6 -2 6 10 12 11 10 12 9 10 11 9 6 7 7 13 12 10 9 11 10 11 11 10 9 9 11 8 6 10 17 17 11 10 12 12 nan
nan 13 12 12 13 11 12 11 10 10 5 19 26 22 14 14 5 -3 6 11 10 10 9 8 13 19 12 11 10 8 9 8 9 10 11 9 9 11 11 11 12 14 13 11 9 16 17 17 20 11 9 10 10 nan
nan 10 11 17 18 12 11 9 11 17 27 33 23 21 13 6 -4 -1 8 12 11 10 10 10 12 17 14 14 12 10 9 9 11 9 9 11 11 11 11 10 13 8 9 9 10 16 10 10 13 16 15 12 11 nan
nan 25 20 22 26 24 26 26 31 33 27 22 23 17 13 8 -2 9 12 19 12 6 9 10 12 16 16 10 10 12 12 10 10 11 10 10 11 9 11 8 3 3 6 13 15 8 10 13 10 12 13 11 12 nan
nan 32 25 23 25 37 30 23 36 32 27 18 14 8 1 1 5 6 20 18 7 9 10 12 12 8 14 15 9 11 13 11 12 9 10 13 13 9 8 11 10 10 10 15 14 6 11 14 10 11 10 10 11 nan
nan 26 24 20 16 17 22 16 15 15 14 12 -1 -3 -1 4 16 15 9 5 12 12 11 9 11 8 11 12 10 12 12 11 11 10 13 10 10 9 9 8 10 12 18 21 15 10 13 12 10 9 9 10 9 nan
nan 15 14 13 15 13 13 13 12 8 -1 -10 -6 3 11 20 13 4 4 8 11 9 10 10 10 15 10 10 10 10 11 12 11 13 11 9 11 15 12 10 9 18 21 14 10 9 10 11 12 11 11 12 11 nan
nan 13 13 14 15 15 13 7 0 -10 -7 4 12 12 20 10 -4 11 13 11 9 10 12 14 11 9 9 12 13 9 9 12 13 17 9 8 11 19 22 19 13 19 14 14 12 13 13 14 12 11 13 14 13 nan
nan 12 14 14 12 8 1 -3 2 10 13 13 9 10 12 9 11 12 10 11 11 11 12 12 15 10 10 12 11 11 10 9 14 13 7 10 10 10 20 22 13 7 14 17 14 16 19 16 13 12 11 11 13 nan
nan 15 14 9 3 1 4 8 16 12 4 6 10 13 9 12 14 14 9 9 10 13 14 11 12 12 10 13 12 12 12 9 10 12 13 9 7 11 16 10 13 12 13 10 12 13 13 13 15 12 10 11 12 nan
nan 18 10 5 7 9 6 4 6 7 12 14 13 10 10 9 11 9 9 13 11 11 14 13 13 12 12 11 9 11 11 10 13 13 12 8 8 12 14 12 10 11 11 11 10 11 11 11 9 11 13 14 12 nan
nan 15 8 6 9 5 3 1 12 18 11 11 12 12 11 9 13 12 9 9 12 14 13 9 11 12 11 11 12 9 11 14 13 9 11 9 10 16 15 13 9 9 9 10 11 11 10 10 11 10 10 13 12 nan
nan 9 15 14 6 3 3 7 13 13 12 12 9 11 12 13 11 11 12 12 12 12 12 12 12 11 10 12 14 11 11 12 10 12 12 12 11 12 12 13 12 12 13 12 12 10 10 12 12 8 10 10 13 nan
nan 22 21 7 4 2 5 12 13 12 12 11 13 14 13 10 9 11 12 10 11 15 13 12 13 11 10 12 10 11 12 15 13 11 10 12 13 12 11 11 12 13 13 12 11 11 9 10 11 10 10 10 13 nan
nan 20 13 3 1 5 10 10 11 11 11 12 12 12 13 12 11 11 11 11 11 11 11 9 14 16 12 9 12 14 11 9 11 13 12 11 12 13 13 12 12 12 11 11 10 10 10 9 9 11 11 11 10 nan
nan 12 8 1 3 10 13 12 11 11 13 11 11 12 11 12 12 12 11 12 13 10 11 14 12 12 12 12 12 13 13 12 12 10 11 12 12 13 11 10 11 13 12 12 11 11 13 13 11 12 10 10 10 nan
nan 12 6 4 8 13 13 14 11 10 12 12 11 13 12 12 11 12 12 13 14 12 12 13 13 13 13 12 11 12 14 14 12 10 11 11 12 13 12 10 11 12 11 11 11 12 12 12 12 14 16 15 14 nan
nan 10 14 11 10 12 9 11 14 13 11 12 12 12 11 12 12 11 10 12 13 14 13 13 13 11 11 13 13 13 13 14 14 14 14 12 11 11 12 14 13 11 12 11 10 11 13 11 11 11 13 14 13 nan
nan 13 15 11 8 12 11 14 13 11 12 12 12 12 13 12 11 11 12 14 12 11 12 14 14 12 12 11 13 15 12 11 12 14 15 14 12 12 12 12 12 13 12 12 13 12 10 12 12 12 12 10 12 nan
nan 13 12 13 12 13 10 11 15 13 12 12 12 12 13 12 11 12 13 12 12 12 12 14 15 14 11 11 11 13 14 10 10 11 11 11 12 12 12 14 16 13 9 12 15 13 11 11 12 12 11 12 11 nan
nan 13 14 11 12 11 12 12 13 11 11 15 13 12 13 11 11 12 13 13 11 12 14 13 11 10 11 12 11 11 11 12 11 11 12 13 11 11 12 12 11 11 13 14 12 12 12 11 11 11 11 11 11 nan
nan 10 13 12 12 14 12 12 12 13 15 11 9 15 14 12 12 12 14 14 13 11 12 11 11 12 12 10 11 14 13 11 11 9 12 14 11 10 10 10 10 9 12 14 15 14 12 11 11 12 12 11 12 nan
nan 13 10 13 13 12 11 13 14 11 10 13 13 12 12 11 13 13 11 12 14 15 14 13 11 13 15 15 12 10 10 14 14 9 12 14 15 16 14 9 8 8 11 12 16 17 13 12 14 12 13 17 13 nan
nan 14 13 9 11 12 14 13 13 15 13 13 14 12 11 11 11 14 10 11 12 12 13 14 16 17 14 12 11 12 12 15 18 15 12 11 11 13 18 18 13 11 10 11 15 17 15 14 14 13 15 18 16 nan
nan 14 15 9 12 15 11 12 15 12 12 12 15 15 14 12 12 12 11 12 12 12 11 10 12 17 17 13 11 10 11 12 11 10 9 10 12 13 12 13 14 14 12 14 17 17 17 16 15 14 15 16 15 nan
nan 12 11 14 14 15 14 13 10 12 14 14 11 9 12 16 15 14 14 12 10 12 12 10 11 11 12 13 13 14 13 13 11 9 6 7 10 12 12 12 11 10 12 11 15 19 18 17 15 12 12 13 14 nan
nan 12 14 16 12 13 14 11 11 11 12 12 10 11 13 14 13 12 13 11 12 11 12 15 13 11 11 11 11 10 11 11 14 19 18 15 13 13 13 13 11 11 11 12 11 11 12 13 10 11 13 14 14 nan
nan 12 15 11 10 14 11 12 14 14 13 12 12 13 13 12 12 14 12 12 13 14 15 13 10 12 15 14 13 10 11 11 13 16 19 18 17 14 13 13 12 11 11 11 11 12 10 10 12 13 12 13 13 nan
nan 11 10 11 14 14 13 12 12 12 14 15 13 14 13 13 11 9 10 16 14 13 12 15 15 14 13 13 14 17 19 14 13 15 15 13 13 13 12 13 14 14 13 13 14 14 15 13 13 14 15 12 11 nan
nan nan nan nan nan nan nan nan nan nan nan nan nan nan nan nan nan nan nan nan nan nan nan nan nan nan nan nan nan nan nan nan nan nan nan nan nan nan nan nan nan nan nan nan nan nan nan nan nan nan nan nan nan nan
CAPE
153 157 175 186 160 159 165 194 191 149 137 115 97 52 46 41 62 21 12 25 27 15 0 1 0 0 0 9 6 7 22 14 14 18 8 2 1 0 3 0 0 4 29 0 2 21 5 1 13 13 0 5 0 0
131 202 207 160 36 27 115 105 166 164 130 111 88 62 52 29 5 28 21 25 19 10 0 0 0 0 0 0 0 0 8 2 1 15 8 4 3 1 8 3 19 7 2 6 0 0 0 0 0 1 0 0 0 0
107 114 134 180 160 34 118 95 172 155 134 89 67 52 66 27 21 35 19 12 2 1 0 0 0 0 1 0 0 0 0 9 5 6 4 16 18 3 11 0 0 21 15 2 3 0 9 0 0 0 0 0 0 0
21 76 154 106 79 100 53 77 67 100 90 73 70 40 7 18 14 45 15 1 0 4 0 0 0 0 0 0 0 0 0 2 4 7 23 29 7 2 7 16 9 0 7 8 0 2 0 0 1 5 0 0 0 0
36 23 39 50 65 53 49 43 32 17 4 7 62 64 15 50 56 31 17 9 0 0 13 0 0 0 0 0 0 0 0 0 0 0 0 7 13 10 0 1 0 0 2 1 0 2 12 5 1 0 0 0 0 0
12 14 19 21 16 24 14 18 4 8 7 54 57 76 39 50 20 0 0 7 11 6 5 0 0 0 0 0 0 0 0 0 0 4 13 26 12 11 0 0 0 14 68 32 28 9 0 0 0 0 0 0 0 0
14 14 6 10 12 17 9 14 13 41 42 34 37 41 48 33 0 0 0 2 10 1 0 0 0 13 0 3 0 0 3 5 12 17 4 9 8 26 7 3 0 0 0 1 0 0 0 0 0 0 0 0 0 0
4 3 8 6 18 15 30 21 13 19 33 45 50 40 11 3 6 4 0 1 7 1 0 0 0 6 45 0 22 0 5 3 0 0 3 4 4 5 8 0 0 0 0 0 0 0 0 0 0 0 0 0 0 0
17 16 8 2 26 14 30 43 41 40 35 17 4 1 0 0 1 0 3 1 8 0 0 1 0 10 7 1 0 0 0 2 2 1 2 22 4 2 0 0 0 0 0 0 0 0 0 0 0 0 0 0 0 0
32 33 32 29 27 30 29 33 32 25 5 0 0 0 0 0 23 8 12 5 4 5 3 3 0 0 6 2 3 0 2 0 5 0 5 15 0 0 0 0 0 0 0 0 0 0 0 0 0 0 0 0 0 0
19 15 13 15 19 21 19 6 7 5 0 0 0 0 9 35 0 1 1 0 4 8 2 0 0 6 7 3 1 1 0 0 9 1 4 0 0 0 0 0 1 5 0 0 0 0 0 0 0 0 0 0 0 0
22 2 1 3 3 5 13 12 6 1 1 0 3 1 4 5 2 1 0 1 5 0 0 0 0 0 15 31 7 4 7 0 8 0 1 0 0 0 0 0 0 0 0 0 0 0 0 0 0 0 0 0 0 0
18 15 8 9 13 14 14 5 0 0 0 0 0 1 2 0 1 0 0 0 2 0 3 21 36 0 0 13 3 0 5 0 0 1 0 0 0 0 0 0 0 0 0 0 0 0 0 0 0 0 0 0 0 0
0 23 30 14 12 10 3 2 0 0 3 0 0 1 0 0 0 0 7 0 0 24 16 6 0 0 0 0 0 1 1 1 0 0 0 0 0 0 0 0 0 0 0 0 0 0 0 0 0 0 0 0 0 0
0 12 26 18 13 0 0 0 0 0 0 0 0 0 0 4 3 0 0 0 0 0 9 1 0 3 4 0 0 3 0 0 0 0 0 0 0 0 0 0 0 0 0 0 0 0 0 0 0 0 0 0 0 0
6 13 15 21 5 3 0 0 0 0 0 0 0 0 0 0 0 0 0 0 0 4 0 1 0 3 0 3 1 0 0 0 0 0 0 0 0 0 0 0 0 0 0 0 0 0 0 0 0 0 0 0 0 0
3 13 29 23 12 0 0 0 0 0 0 0 5 0 0 3 3 0 0 2 11 4 0 0 2 2 0 4 0 2 0 0 0 0 0 0 0 0 0 0 0 0 0 0 0 0 0 0 0 0 0 0 0 0
2 7 18 8 0 0 1 0 1 2 0 0 1 1 1 1 1 0 1 1 4 1 0 3 5 0 0 1 0 0 0 0 0 0 0 0 0 0 0 0 0 0 0 0 0 0 0 0 0 0 0 0 0 0
7 5 14 12 3 7 2 0 0 3 1 2 0 0 0 1 0 0 0 0 0 15 7 5 4 8 0 0 0 0 0 0 0 1 0 0 0 0 0 0 0 0 0 0 0 0 0 0 0 0 0 0 0 0
5 3 0 0 0 12 16 2 7 9 3 2 0 0 8 0 1 0 0 0 3 5 10 4 0 0 0 0 0 0 0 0 0 0 1 1 0 0 0 0 0 0 0 0 0 0 0 0 0 0 0 0 0 0
0 0 0 0 0 0 1 0 6 2 0 2 4 3 5 0 3 5 4 0 0 0 0 0 0 0 0 0 0 0 0 0 0 1 0 1 0 0 0 0 0 0 0 0 0 0 0 0 0 0 0 0 0 0
0 0 0 0 0 0 1 1 0 2 7 6 0 1 7 1 0 0 0 0 0 0 0 0 0 0 0 0 0 0 0 0 0 0 0 0 0 0 0 0 0 0 0 0 0 0 0 0 0 0 0 0 0 0
0 0 0 0 0 0 0 0 0 1 3 9 2 5 7 0 0 1 0 0 0 0 0 0 0 0 0 0 0 0 0 0 0 0 0 0 0 0 0 0 0 0 0 0 0 0 0 0 0 0 0 0 0 0
0 0 0 0 0 0 0 0 0 0 0 0 1 1 1 2 0 2 5 1 0 0 0 0 0 0 0 0 0 0 0 0 0 0 0 0 0 0 0 0 0 0 0 0 0 0 0 0 0 0 0 0 0 0
0 0 0 0 0 0 0 0 0 1 0 0 1 0 0 0 0 7 3 0 0 0 0 0 0 0 0 0 0 0 0 0 0 0 0 0 0 0 0 0 0 0 0 0 0 0 0 0 0 0 0 0 0 0
0 0 0 0 0 0 1 0 0 0 1 1 1 0 0 2 6 0 0 1 2 1 0 0 0 0 0 0 0 0 0 0 0 0 0 0 0 0 0 0 0 0 0 0 0 0 0 0 0 0 0 0 0 0
0 0 0 0 0 0 0 0 0 0 1 0 2 1 2 1 0 0 0 0 0 0 0 0 0 0 0 0 0 0 0 0 0 0 0 0 0 0 0 0 0 0 0 0 0 0 0 0 0 0 0 0 0 0
0 0 0 0 0 0 0 0 0 0 0 0 0 0 1 1 0 0 0 0 0 0 0 0 0 0 0 0 0 0 0 0 0 0 0 0 0 0 0 0 0 0 0 0 0 0 0 0 0 0 0 0 0 0
0 0 0 0 0 0 0 0 0 0 0 0 0 0 0 0 0 0 0 0 0 0 1 0 0 0 0 0 0 0 0 0 0 0 0 0 0 0 0 0 0 0 0 0 0 0 0 0 0 0 0 0 0 0
0 0 1 3 0 0 0 0 0 0 0 0 0 0 0 0 0 0 0 0 0 0 0 1 0 0 0 0 0 1 0 0 0 0 0 0 0 0 0 0 0 0 0 0 0 0 1 0 0 0 0 0 0 0
8 5 3 1 6 4 0 0 0 0 0 0 0 1 0 1 0 0 0 0 0 1 4 0 0 1 0 0 0 0 0 0 0 0 0 0 0 0 0 0 0 0 0 0 0 0 0 0 0 0 0 0 0 0
4 15 14 15 12 0 0 0 0 4 2 1 0 0 1 0 0 0 0 0 0 0 0 0 0 0 0 0 0 0 0 0 0 0 0 0 0 0 0 0 0 0 0 0 0 0 0 0 0 0 0 0 0 0
11 11 5 8 7 2 0 0 0 0 0 2 0 1 3 6 0 0 0 0 0 0 0 1 2 0 0 0 0 0 0 0 0 0 0 0 0 0 0 0 0 0 0 0 0 0 0 0 0 0 0 0 0 0